Regional Weather Roundup
Issued by NWS Midland/Odessa, TX

Skip options and go directly to product.
Home | Oldest Version | Previous Version | Current Version | All | Graphics & Text | Save Text | Print | Product List | Glossary On

Skip product version selection by date and time.   
003
ASUS44 KMAF 162110
RWRMAF
MIDLAND AREA WEATHER ROUNDUP
NATIONAL WEATHER SERVICE MIDLAND TX
400 PM CDT TUE SEP 16 2014

...IN SOUTHWEST TEXAS AND SOUTHEAST NEW MEXICO...

CITY           SKY/WX    TMP DP  RH WIND       PRES   REMARKS
ALPINE         MOSUNNY   79  59  50 E12       30.23F
ANDREWS        CLOUDY    77  64  63 CALM      30.14F
ARTESIA        NOT AVBL
BIG SPRING     CLOUDY    82  66  59 CALM      30.12F
CARLSBAD       PTSUNNY   77  69  76 E8        30.13F
DRYDEN           N/A     91  64  40 E10       30.04F
FORT STOCKTON  PTSUNNY   82  62  50 SE12      30.11F
GUAD PASS      PTSUNNY   70  60  70 NE22      30.25F
HOBBS          LGT RAIN  68  68 100 NW6       30.19F
MARFA          MOSUNNY   77  57  50 E9        30.21F
MIDLAND AIRPK  CLOUDY    82  63  51 S3        30.12
MIDLAND INTL   CLOUDY    81  64  56 S3        30.11F
ODESSA         PTSUNNY   81  63  54 SE3       30.12F
PECOS          PTSUNNY   83  60  45 E9        30.08F
PRESIDIO       CLOUDY    87  60  40 E8        30.05F
SEMINOLE       CLOUDY    75  65  72 NW9       30.16F
SNYDER         CLOUDY    82  66  58 SE5       30.11F
WINK           PTSUNNY   83  61  47 SE7       30.09F
$$
...OTHER STATIONS IN TEXAS...

CITY           SKY/WX    TMP DP  RH WIND       PRES   REMARKS
ABILENE        CLOUDY    87  63  44 SE7       30.06F
AMARILLO       CLOUDY    77  62  59 S7        30.15F
AUSTIN         MOSUNNY   94  70  45 NE12      29.94F HX 100
BROWNSVILLE    MOSUNNY   89  75  63 S13       29.92F
CORPUS CHRISTI PTSUNNY   87  77  72 SE10      29.92F
DALLAS FTW     CLOUDY    90  67  46 NE6       30.01F
DEL RIO        MOSUNNY   89  69  51 S6        29.97F
EL PASO        PTSUNNY   80  62  54 E12       30.11F
HOUSTON INT    CLOUDY    85  74  69 E15       29.98F
LUBBOCK        CLOUDY    76  63  64 S13       30.14F
SAN ANGELO     CLOUDY    89  66  46 E8        30.05F
SAN ANTONIO    PTSUNNY   92  70  48 N13G20    29.96F
WACO           LGT RAIN  81  71  71 NE9       30.01F
WICHITA FALLS  NOT AVBL
$$
...OTHER LOCATIONS IN NEW MEXICO...

CITY           SKY/WX    TMP DP  RH WIND       PRES   REMARKS
ALAMAGORDO     CLOUDY    72  64  78 NW3       30.18F
ALBUQUERQUE    CLOUDY    71  58  63 S7        30.23F
CANNON AFB     PTSUNNY   76  58  53 SW13      30.19F
CLOVIS           N/A     73  61  64 SW14      30.20F
HOLLOMAN AFB   LGT RAIN  72  64  78 NW1       30.15F
ROSWELL        LGT RAIN  68  65  90 SE9       30.18F FOG
RUIDOSO        LGT RAIN  59  57  94 SE9       30.34F
SANTA FE       CLOUDY    74  50  42 W9        30.26F
TRUTH OR CONSE LGT RAIN  69  61  75 CALM      30.20F
TUCUMCARI      CLOUDY    80  59  48 S14G21    30.14F
$$

USA.gov is the U.S. government's official web portal to all federal, state and local government web resources and services.